Brainerd, MN

10:20 PM CDT on March 29, 2017 (GMT -0500)
Brainerd-Crow Wing County Regional

Weather History for KBRD - September, 2012

Change the Weather History Date:

Tuesday, September 18, 2012

  Actual Average Record
Temperature  
Mean Temperature 46 °F -  
Max Temperature 57 °F 67 °F 87 °F (1998)
Min Temperature 36 °F 45 °F 27 °F (1973)
Degree Days  
Heating Degree Days 18    
Moisture  
Dew Point 33 °F    
Average Humidity 58    
Maximum Humidity 83    
Minimum Humidity 36    
Precipitation  
Precipitation 0.00 in - - ()
Sea Level Pressure  
Sea Level Pressure 29.99 in    
Wind  
Wind Speed 4 mph (WSW)    
Max Wind Speed 10 mph    
Max Gust Speed -    
Visibility 10 miles    
Events      
Averages and records for this station are not official NWS values.
T = Trace of Precipitation, MM = Missing Value Source: NWS Daily Summary

Daily Weather History Graph

Daily Weather History Graph

Search for Another Location

Airport or City:

Trip Planner

Search our weather history database for the weather conditions in past years. The results will help you decide how hot, cold, wet, or windy it might be!

Date:

Astronomy

Sep. 18, 2012 Rise Set
Actual Time 6:59 AM CDT 7:21 PM CDT
Civil Twilight 6:28 AM CDT 7:51 PM CDT
Nautical Twilight 5:53 AM CDT 8:26 PM CDT
Astronomical Twilight 5:16 AM CDT 9:03 PM CDT
Moon 10:14 AM CDT (9/18) 8:28 PM CDT (9/18)
Length of Visible Light 13h 22m
Length of Day
12h 22m
Waxing Crescent, 9% of the Moon is Illuminated
Sep 18
Waxing Crescent
Sep 22
First Quarter
Sep 29
Full
Oct 8
Last Quarter
Oct 15
New

Hourly Weather History & Observations

Time (CDT) Temp. Windchill Dew Point Humidity Pressure Visibility Wind Dir Wind Speed Gust Speed Precip Events Conditions
12:53 AM 45.0 °F 43.5 °F 37.9 °F 76% 30.04 in 10.0 mi NNW 3.5 mph - N/A   Overcast
1:53 AM 44.1 °F 41.5 °F 36.0 °F 73% 30.04 in 10.0 mi NNW 4.6 mph - N/A   Mostly Cloudy
3:53 AM 42.1 °F 40.2 °F 36.0 °F 79% 30.03 in 10.0 mi NNW 3.5 mph - N/A   Clear
4:53 AM 41.0 °F 38.0 °F 35.1 °F 79% 30.04 in 10.0 mi NNW 4.6 mph - N/A   Clear
5:53 AM 36.0 °F - 30.9 °F 82% 30.05 in 10.0 mi Calm Calm - N/A   Clear
6:53 AM 39.9 °F 35.8 °F 34.0 °F 79% 30.06 in 10.0 mi NW 5.8 mph - N/A   Clear
7:53 AM 39.9 °F - 35.1 °F 83% 30.06 in 10.0 mi Calm Calm - N/A   Clear
8:53 AM 45.0 °F - 37.9 °F 76% 30.06 in 10.0 mi Calm Calm - N/A   Clear
9:53 AM 48.0 °F - 37.9 °F 68% 30.06 in 10.0 mi Calm Calm - N/A   Clear
10:53 AM 51.1 °F - 32.0 °F 48% 30.06 in 10.0 mi Variable 4.6 mph - N/A   Clear
11:53 AM 52.0 °F - 30.9 °F 45% 30.05 in 10.0 mi Variable 5.8 mph - N/A   Partly Cloudy
12:53 PM 55.0 °F - 30.9 °F 40% 30.03 in 10.0 mi WNW 6.9 mph - N/A   Partly Cloudy
1:53 PM 57.0 °F - 30.0 °F 36% 30.01 in 10.0 mi WSW 4.6 mph - N/A   Mostly Cloudy
2:53 PM 55.9 °F - 28.9 °F 36% 29.99 in 10.0 mi WSW 5.8 mph - N/A   Scattered Clouds
3:53 PM 57.0 °F - 30.0 °F 36% 29.97 in 10.0 mi WNW 8.1 mph - N/A   Clear
4:53 PM 55.9 °F - 28.9 °F 36% 29.96 in 10.0 mi West 9.2 mph - N/A   Mostly Cloudy
5:53 PM 55.0 °F - 30.9 °F 40% 29.95 in 10.0 mi South 3.5 mph - N/A   Clear
6:53 PM 53.1 °F - 34.0 °F 48% 29.94 in 10.0 mi SSE 3.5 mph - N/A   Partly Cloudy
7:53 PM 51.1 °F - 35.1 °F 54% 29.92 in 10.0 mi SSE 4.6 mph - N/A   Overcast
8:53 PM 50.0 °F - 35.1 °F 57% 29.91 in 10.0 mi South 4.6 mph - N/A   Overcast
9:53 PM 48.9 °F - 33.1 °F 54% 29.88 in 10.0 mi SSE 4.6 mph - N/A   Scattered Clouds
10:53 PM 50.0 °F - 33.1 °F 52% 29.86 in 10.0 mi South 5.8 mph - N/A   Mostly Cloudy
11:53 PM 51.1 °F - 32.0 °F 48% 29.82 in 10.0 mi South 10.4 mph - N/A   Overcast